Hourly Data Report for August 28, 2020

OTTAWA INTL A
ONTARIO
Current Station Operator: NAVCAN

45°19'00.000" N
75°40'00.000" W
114.90 m
6106001
71628
YOW

Download Data

Hourly Data (August 2020)
Hourly Data Report for August 28, 2020
TIME
LST
Temp Definition
°C
Dew Point Definition
°C
Rel Hum Definition
%
Precip. Amount Definition
mm

Wind Dir Definition
10's deg

Wind Spd Definition
km/h
Visibility Definition
km
Stn Press Definition
kPa
Hmdx Definition


Wind Chill Definition


Weather Definition


00:00 14.1 12.6 91   30 14 24.1 99.52     LegendNANA
01:00 13.9 12.7 93   28 13 24.1 99.56     Mostly Cloudy
02:00 13.7 12.5 92   27 10 24.1 99.56     LegendNANA
03:00 12.9 12.2 96   31 14 24.1 99.51     LegendNANA
04:00 11.0 10.6 97   23 10 24.1 99.56     Mainly Clear
05:00 11.1 10.9 98   25 12 24.1 99.64     LegendNANA
06:00 11.8 11.7 99   26 13 24.1 99.72     LegendNANA
07:00 13.2 12.8 97   26 13 24.1 99.75     Mostly Cloudy
08:00 15.5 13.6 88   30 11 24.1 99.78     LegendNANA
09:00 16.6 13.0 79   30 9 24.1 99.78     LegendNANA
10:00 17.6 13.5 77   27 12 24.1 99.83     Mostly Cloudy
11:00 18.8 11.6 63   30 13 24.1 99.81     LegendNANA
12:00 20.2 11.2 56   29 10 24.1 99.74     LegendNANA
13:00 21.0 8.4 44   26 8 24.1 99.71     Mostly Cloudy
14:00 21.5 8.7 43   22 8 24.1 99.64     LegendNANA
15:00 20.8 11.1 53   35 7 24.1 99.62     LegendNANA
16:00 21.6 12.1 54   20 5 24.1 99.59     Mostly Cloudy
17:00 20.7 13.0 61   27 10 24.1 99.56     LegendNANA
18:00 19.3 14.3 73   24 5 24.1 99.53     LegendNANA
19:00 18.5 13.3 71   24 5 24.1 99.52     Mostly Cloudy
20:00 16.5 14.1 86   9 3 24.1 99.51     LegendNANA
21:00 16.6 13.9 84   20 4 24.1 99.50     LegendNANA
22:00 15.3 14.0 92   11 6 24.1 99.43     Cloudy
23:00 15.9 13.8 87   10 9 24.1 99.36     LegendNANA

Notes on Data Quality.

Legend

  • E = Estimated
  • M = Missing
  • NA = Not Available*
  • [empty] = Indicates an unobserved value
Date modified: